ELEKTRON 1 DEB *, 18589

Orbit data source: Space-Track

ELEKTRON 1 DEB *, 18589 is space debris in LEO originally from a launch on Thu, 30 Jan 1964 UTC launched from the Tyuratam Missile And Space Complex (TTMTR). Debris objects in space refer to the collection of defunct objects orbiting the Earth. Examples of debris include non-operational satellites, rocket bodies, and fragments generated from explosions, collisions, or faulty payload assembly.

Loading next visibility...
Identifier
18589, 1964-006N
Orbit
LEO
Country
Flag of CISCIS
Related business
Manufacturer
Unknown
Mission
Spacecraft
Bus & Motor
Unknown
Mass
Unknown
Launch date (UTC)
1964-01-30 (62 years ago)
Launch vehicle
Unknown
Launch site
Tyuratam Missile And Space Complex (TTMTR)
Object type
Payload
Rocket body
Debris
Shape & HBR
Unknown shape, 0.1 m
Radar Cross Section
Small (<0.1 m²)

Expand to show TLE details & history
Last TLE update: 15 hours ago

TLE from 15 hours ago
0 ELEKTRON 1 DEB *
1 18589U 64006N   25287.19152559  .00005466  00000-0  27494-1 0  9996
2 18589  58.9501 352.6564 2038874 270.0843  66.8022  9.96237106414453
Epoch: 2025-10-14T04:35Z
TLE epoch observation values (Epoch: 2025-10-14T04:35:47.810Z)
Latitude
-0.00005°
Longitude
-99.27633°
Altitude
2,367.341 km
Speed
6.891 km/s
True Right ascension
23h 30m 37s
True Declination
0° 00' 00"
Sunlit
Object was in full shadow at epoch
Visualization orbit readout
Latitude
Unknown
Longitude
Unknown
Altitude
Unknown
Speed
Unknown
Apparent Right ascension
Unknown
Apparent Declination
Unknown
Sunlit
N/A
Visualization observer readout
Local Sidereal Time
13:50:13
Azimuth
Unknown
Elevation
Unknown
Doppler factor
Unknown
Orbital elements
Apogee altitude
4,604.875 km
Perigee altitude
884.763 km
Semi-major axis
9,122.956 km
Eccentricity
0.20389
Inclination
58.9501°
RAAN
352.6564°
Arg. of periapsis
270.0843°
True anomaly
90.00328°
Mean anomaly
66.8022°
Eccentric anomaly
78.23884°
Mean motion
2.49081 °/min
Orbital period
144.53 mins
BSTAR
0.027494
Loading maneuver chart data...
Computing Atmospheric mass density...

Documentation

Showing up to 5 results
|